{"data":{"norad_id":55797,"epoch":"2026-05-25T02:58:18.592320Z","epoch_age_seconds":64105,"freshness":"FRESH","line1":"1 55797U 23029B   26145.12382630  .00000060  00000+0  11658-3 0  9991","line2":"2 55797  87.9166 279.0698 0001829  95.7661 264.3681 13.20770088158108","mean_motion":13.20770088,"eccentricity":0.0001829,"inclination_deg":87.9166,"raan_deg":279.0698,"arg_perigee_deg":95.7661,"mean_anomaly_deg":264.3681,"bstar":0.00011658,"rev_number":15810,"period_min":109.02730256259,"perigee_km":1180.397246111,"apogee_km":1183.1626637331,"semimajor_km":7559.9169549221,"source":"CELESTRAK","updated_at":"2026-05-25T13:38:22.648670Z"}}